Weather History for 71786 - January, 2013

Change the Weather History Date:

Tuesday, January 22, 2013

  Actual Average Record
Temperature  
Mean Temperature 16 °F -  
Max Temperature 19 °F - - ()
Min Temperature 13 °F - - ()
Degree Days  
Heating Degree Days 49    
Moisture  
Dew Point 14 °F    
Average Humidity 92    
Maximum Humidity 93    
Minimum Humidity 86    
Precipitation  
Precipitation 0.00 in - - ()
Sea Level Pressure  
Sea Level Pressure 30.27 in    
Wind  
Wind Speed 14 mph ()    
Max Wind Speed 23 mph    
Max Gust Speed -    
T = Trace of Precipitation, MM = Missing Value Source: Averaged Metar Reports

Daily Weather History Graph

Daily Weather History Graph

Search for Another Location

Airport or City:

Trip Planner

Search our weather history database for the weather conditions in past years. The results will help you decide how hot, cold, wet, or windy it might be!

Date:

Astronomy

Jan. 22, 2013 Rise Set
Actual Time 8:36 AM MST 5:18 PM MST
Civil Twilight 7:59 AM MST 5:55 PM MST
Nautical Twilight 7:18 AM MST 6:36 PM MST
Astronomical Twilight 6:38 AM MST 7:16 PM MST
Moon 1:38 PM MST (1/22) 5:07 AM MST (1/22)
Length of Visible Light 9h 56m
Length of Day
8h 41m
Waxing Gibbous, 83% of the Moon is Illuminated
Jan 22
Waxing Gibbous
Jan 26
Full
Feb 3
Last Quarter
Feb 10
New
Feb 17
First Quarter

Hourly Weather History & Observations

Time (MST) Temp. Windchill Dew Point Humidity Pressure Visibility Wind Dir Wind Speed Gust Speed Precip Events Conditions
12:00 AM 15.6 °F 0.6 °F 14.0 °F 93% 30.29 in - WSW 15.0 mph - N/A   Unknown
1:00 AM 15.8 °F 0.3 °F 14.2 °F 93% 30.28 in - WSW 16.1 mph - N/A   Unknown
2:00 AM 15.4 °F 1.0 °F 13.8 °F 93% 30.28 in - WSW 13.8 mph - N/A   Unknown
3:00 AM 15.3 °F 1.4 °F 13.6 °F 93% 30.30 in - WSW 12.7 mph - N/A   Unknown
4:00 AM 15.1 °F 0.5 °F 13.3 °F 93% 30.30 in - WSW 13.8 mph - N/A   Unknown
5:00 AM 15 °F - 13 °F 88% 30.30 in - SW 15.0 mph - -  
5:00 AM 14.9 °F -0.3 °F 13.1 °F 93% 30.30 in - SW 15.0 mph - N/A   Unknown
6:00 AM 14.0 °F 0.5 °F 12.0 °F 92% 30.28 in - SW 11.5 mph - N/A   Unknown
7:00 AM 13.5 °F -0.2 °F 11.3 °F 91% 30.27 in - SW 11.5 mph - N/A   Unknown
8:00 AM 13.5 °F -0.9 °F 11.5 °F 92% 30.29 in - WSW 12.7 mph - N/A   Unknown
9:00 AM 13.1 °F -1.4 °F 10.9 °F 91% 30.29 in - WSW 12.7 mph - N/A   Unknown
10:00 AM 14.4 °F 1.6 °F 12.4 °F 92% 30.30 in - WSW 10.4 mph - N/A   Unknown
11:00 AM 16 °F - 14 °F 86% 30.29 in - WSW 11.5 mph - -  
11:00 AM 15.6 °F 2.5 °F 13.6 °F 92% 30.29 in - WSW 11.5 mph - N/A   Unknown
12:00 PM 17.8 °F 1.9 °F 15.6 °F 91% 30.27 in - West 18.4 mph - N/A   Unknown
1:00 PM 19.2 °F 3.0 °F 17.1 °F 91% 30.25 in - West 20.7 mph - N/A   Unknown
2:00 PM 18.9 °F 2.5 °F 16.7 °F 91% 30.24 in - West 20.7 mph - N/A   Unknown
3:00 PM 19.2 °F 2.6 °F 17.2 °F 92% 30.24 in - West 21.9 mph - N/A   Unknown
4:00 PM 18.9 °F 1.7 °F 16.9 °F 92% 30.25 in - West 23.0 mph - N/A   Unknown
5:00 PM 18 °F - 16 °F 89% 30.25 in - West 21.9 mph - -  
5:00 PM 18.1 °F 1.2 °F 16.2 °F 92% 30.25 in - West 21.9 mph - N/A   Unknown
6:00 PM 18.0 °F 1.7 °F 16.2 °F 93% 30.25 in - West 19.6 mph - N/A   Unknown
7:00 PM 17.4 °F 1.9 °F 15.6 °F 93% 30.25 in - West 17.3 mph - N/A   Unknown
8:00 PM 17.6 °F 2.7 °F 15.8 °F 93% 30.23 in - WSW 16.1 mph - N/A   Unknown
9:00 PM 17.2 °F 1.7 °F 15.4 °F 93% 30.24 in - WSW 17.3 mph - N/A   Unknown
10:00 PM 17.1 °F 5.8 °F 15.3 °F 93% 30.23 in - SW 9.2 mph - N/A   Unknown
11:00 PM 17 °F - 15 °F 89% 30.24 in - SW 15.0 mph - -  
11:00 PM 17.1 °F 2.5 °F 15.3 °F 93% 30.24 in - SW 15.0 mph - N/A   Unknown